Stations météo

réclame
Mon MeteoGroup
Elsenborn, Belgique (6496): Température de l'air & dewpoint: 12.11.2017 05:00:00 - 18.11.2017 05:00:00 (CET)Elsenborn, Belgique (6496): Vitesse du vent & gusts: 12.11.2017 05:00:00 - 18.11.2017 05:00:00 (CET)Elsenborn, Belgique (6496): Direction du vent: 12.11.2017 05:00:00 - 18.11.2017 05:00:00 (CET)Elsenborn, Belgique (6496): reduced air pressure: 12.11.2017 05:00:00 - 18.11.2017 05:00:00 (CET)Elsenborn, Belgique (6496): visibility: 12.11.2017 05:00:00 - 18.11.2017 05:00:00 (CET)
Date & Time tt [°C] td [°C] ff [km/h] ff [knt] fx [km/h] fx [knt] dd ppp [hPa] vv [km]
18.11.2017 05:00:00 -4,9 -5,6 4 2 7 4 - 1026,7 10
18.11.2017 04:00:00 -4,5 -5,1 2 1 - - - 1027,0 10
18.11.2017 03:00:00 -5,0 -5,7 2 1 4 2 - 1028,0 10
18.11.2017 02:00:00 -5,0 -5,6 2 1 4 2 - 1028,4 10
18.11.2017 01:00:00 -4,3 -5,1 4 2 - - N 1028,5 19
18.11.2017 00:00:00 -4,1 -4,9 2 1 4 2 - 1029,0 10
17.11.2017 23:00:00 -3,1 -3,7 2 1 4 2 - 1028,9 10
17.11.2017 22:00:00 -3,0 -3,3 2 1 - - - 1028,9 10
17.11.2017 21:00:00 -2,1 -2,3 2 1 7 4 - 1028,7 7
17.11.2017 20:00:00 -1,6 -1,9 2 1 7 4 - 1029,2 10
17.11.2017 19:00:00 -0,8 -1,2 4 2 - - - 1028,5 6
17.11.2017 18:00:00 -0,1 -0,7 2 1 7 4 - 1028,5 7
17.11.2017 17:00:00 2,3 0,6 5 3 14 8 NNE 1027,9 10
17.11.2017 16:00:00 4,0 1,6 5 3 - - N 1027,4 10
17.11.2017 15:00:00 4,8 2,4 13 7 18 10 NNE 1027,4 10
17.11.2017 14:00:00 4,9 2,2 11 6 22 12 N 1027,4 10
17.11.2017 13:00:00 4,9 2,4 11 6 - - N 1027,5 10
17.11.2017 12:00:00 4,9 2,5 9 5 18 10 NNE 1027,7 10
17.11.2017 11:00:00 4,6 3,0 8 4 18 10 N 1028,0 10
17.11.2017 10:00:00 5,0 3,8 8 4 - - NNW 1028,0 10
17.11.2017 09:00:00 5,0 4,6 8 4 11 6 N 1027,5 10
17.11.2017 08:00:00 4,8 4,7 5 3 11 6 N 1027,0 9
17.11.2017 07:00:00 5,4 5,2 8 4 - - NNE 1026,5 4,6
17.11.2017 06:00:00 5,9 5,9 9 5 14 8 N 1026,0 2,9
17.11.2017 05:00:00 5,8 5,8 5 3 11 6 WNW 1025,9 0,8
17.11.2017 04:00:00 5,5 5,5 5 3 - - W 1025,5 1,8
17.11.2017 03:00:00 5,6 5,6 5 3 7 4 WSW 1025,5 0,4
17.11.2017 02:00:00 5,5 5,4 5 3 18 10 WSW 1025,5 5
17.11.2017 01:00:00 5,9 5,9 8 4 - - WNW 1025,4 4,2
17.11.2017 00:00:00 5,8 5,8 8 4 11 6 W 1025,4 0,2
16.11.2017 23:00:00 5,7 5,7 5 3 18 10 W 1025,2 0,2
16.11.2017 22:00:00 5,8 5,8 8 4 - - W 1025,2 0,7
16.11.2017 21:00:00 5,5 5,2 5 3 11 6 WSW 1025,0 6
16.11.2017 20:00:00 5,5 5,0 5 3 11 6 - 1024,7 10
16.11.2017 19:00:00 5,5 4,9 5 3 - - SW 1024,5 10
16.11.2017 18:00:00 5,6 4,7 8 4 14 8 SW 1024,2 9
16.11.2017 17:00:00 5,9 4,4 8 4 11 6 WSW 1024,0 10
16.11.2017 16:00:00 6,0 4,3 8 4 - - WSW 1023,8 10
16.11.2017 15:00:00 6,3 3,8 5 3 11 6 WSW 1023,7 10
16.11.2017 14:00:00 6,5 3,7 8 4 14 8 SW 1024,0 10
16.11.2017 13:00:00 6,3 2,6 9 5 - - W 1024,5 10
16.11.2017 12:00:00 5,8 2,1 8 4 11 6 WSW 1024,7 10
16.11.2017 11:00:00 4,1 2,1 4 2 7 4 - 1025,5 10
16.11.2017 10:00:00 2,5 2,3 5 3 - - W 1025,9 8
16.11.2017 09:00:00 1,7 1,6 4 2 11 6 - 1025,9 4,3
16.11.2017 08:00:00 1,4 1,4 4 2 7 4 - 1025,4 0,2
16.11.2017 07:00:00 0,6 0,6 4 2 - - - 1025,4 0,6
16.11.2017 06:00:00 1,2 1,2 4 2 4 2 - 1025,4 5
16.11.2017 05:00:00 2,5 2,1 2 1 4 2 - 1025,4 0,7
16.11.2017 04:00:00 4,4 3,6 4 2 - - - 1025,0 10
16.11.2017 03:00:00 4,8 4,1 9 5 14 8 S 1025,2 10
16.11.2017 02:00:00 5,0 4,5 4 2 11 6 - 1025,5 10
16.11.2017 01:00:00 5,4 5,0 4 2 - - - 1025,7 7
16.11.2017 00:00:00 5,5 5,3 4 2 7 4 - 1026,2 6
15.11.2017 23:00:00 5,5 5,4 4 2 7 4 - 1026,0 6
15.11.2017 22:00:00 5,5 5,5 4 2 - - - 1026,2 4,0
15.11.2017 21:00:00 5,6 5,6 4 2 7 4 - 1026,4 1,9
15.11.2017 20:00:00 5,7 5,7 5 3 7 4 SW 1026,5 2,2
15.11.2017 19:00:00 5,9 5,9 4 2 - - - 1026,2 0,7
15.11.2017 18:00:00 6,1 6,1 5 3 11 6 SSW 1026,2 3,0
15.11.2017 17:00:00 6,4 6,3 4 2 7 4 - 1026,0 2,9
15.11.2017 16:00:00 6,9 6,2 4 2 - - - 1026,0 10
15.11.2017 15:00:00 6,9 6,1 8 4 11 6 SW 1026,0 10
15.11.2017 14:00:00 6,8 6,3 5 3 11 6 SSW 1026,0 10
15.11.2017 13:00:00 7,1 6,4 9 5 - - SW 1026,5 10
15.11.2017 12:00:00 6,3 6,1 5 3 11 6 WSW 1027,0 4,1
15.11.2017 11:00:00 5,5 5,5 4 2 11 6 - 1027,5 1,6
15.11.2017 10:00:00 4,9 4,8 5 3 - - WSW 1027,4 2,7
15.11.2017 09:00:00 4,1 4,1 4 2 7 4 - 1027,5 0,3
15.11.2017 08:00:00 3,9 3,9 4 2 11 6 - 1027,2 0,2
15.11.2017 07:00:00 3,7 3,7 8 4 - - WSW 1027,0 0,3
15.11.2017 06:00:00 3,4 3,4 5 3 7 4 SSW 1026,9 0,3
15.11.2017 05:00:00 3,2 3,2 4 2 11 6 - 1026,9 0,7
15.11.2017 04:00:00 3,0 3,0 4 2 - - - 1027,0 0,3
15.11.2017 03:00:00 3,0 3,0 5 3 11 6 SSW 1027,5 0,2
15.11.2017 02:00:00 2,9 2,9 5 3 14 8 SSW 1027,5 0,6
15.11.2017 01:00:00 2,9 2,9 5 3 - - SSW 1027,5 1,1
15.11.2017 00:00:00 2,9 2,9 5 3 14 8 SSW 1027,5 1,8
14.11.2017 23:00:00 2,9 2,9 4 2 14 8 - 1027,5 1,3
14.11.2017 22:00:00 3,0 2,9 8 4 - - SSW 1027,4 1,4
14.11.2017 21:00:00 3,4 2,2 5 3 11 6 SSW 1027,2 10
14.11.2017 20:00:00 3,5 2,1 5 3 14 8 SW 1027,0 10
14.11.2017 19:00:00 3,5 2,0 5 3 - - SSW 1026,7 10
14.11.2017 18:00:00 3,4 1,8 5 3 11 6 WSW 1026,5 10
14.11.2017 17:00:00 3,2 1,2 4 2 22 12 - 1026,4 10
14.11.2017 16:00:00 4,8 0,9 13 7 - - WSW 1025,7 10
14.11.2017 15:00:00 5,6 2,0 13 7 25 14 W 1025,5 10
14.11.2017 14:00:00 4,7 1,6 15 8 22 12 W 1025,7 10
14.11.2017 13:00:00 3,9 3,1 11 6 - - WSW 1026,2 10
14.11.2017 12:00:00 2,9 2,4 11 6 22 12 WSW 1026,7 9
14.11.2017 11:00:00 1,6 1,6 9 5 14 8 WSW 1027,4 0,9
14.11.2017 10:00:00 1,0 1,0 8 4 - - SSW 1027,2 0,3
14.11.2017 09:00:00 0,6 0,6 5 3 7 4 SW 1027,0 0,6
14.11.2017 08:00:00 0,2 0,1 5 3 11 6 WSW 1027,0 0,1
14.11.2017 07:00:00 0,3 0,3 5 3 - - SW 1026,2 0,1
14.11.2017 06:00:00 0,2 0,1 5 3 11 6 WSW 1026,2 0,1
14.11.2017 05:00:00 0,4 0,3 4 2 11 6 - 1026,0 0,1
14.11.2017 04:00:00 -0,3 -0,3 8 4 - - WSW 1026,2 0,2
14.11.2017 03:00:00 -0,6 -0,6 4 2 7 4 - 1025,9 0,1
14.11.2017 02:00:00 0,8 0,7 5 3 7 4 WSW 1025,4 0,7
14.11.2017 01:00:00 0,6 0,6 2 1 - - - 1025,4 1,4
14.11.2017 00:00:00 1,2 1,1 11 6 22 12 NNW 1025,0 2,3
13.11.2017 23:00:00 1,7 1,5 9 5 14 8 NNW 1024,7 4,4
13.11.2017 22:00:00 1,7 1,3 8 4 - - NNW 1024,5 5
13.11.2017 21:00:00 2,5 1,8 9 5 14 8 NNW 1023,8 10
13.11.2017 20:00:00 2,4 1,9 11 6 18 10 NNW 1023,5 9
13.11.2017 19:00:00 2,6 1,9 9 5 - - NNW 1022,8 10
13.11.2017 18:00:00 2,9 2,3 11 6 22 12 NNW 1022,2 10
13.11.2017 17:00:00 3,5 2,4 9 5 22 12 NNW 1021,2 10
13.11.2017 16:00:00 3,9 2,3 15 8 - - NNW 1020,3 10
13.11.2017 15:00:00 4,0 2,2 15 8 29 16 N 1019,8 10
13.11.2017 14:00:00 4,4 2,2 15 8 29 16 NNW 1019,5 10
13.11.2017 13:00:00 4,0 2,6 16 9 - - NNW 1019,2 10
13.11.2017 12:00:00 3,5 2,1 16 9 32 18 N 1019,1 10
13.11.2017 11:00:00 2,6 2,3 18 10 36 19 N 1019,0 8
13.11.2017 10:00:00 2,2 1,7 18 10 - - N 1018,2 10
13.11.2017 09:00:00 2,2 1,9 21 11 32 18 N 1017,7 10
13.11.2017 08:00:00 2,0 2,0 21 11 36 19 NNW 1016,7 4,4
13.11.2017 07:00:00 1,7 1,7 21 11 - - NNW 1015,8 0,7
13.11.2017 06:00:00 1,7 1,6 18 10 40 21 N 1015,0 10
13.11.2017 05:00:00 1,8 1,8 22 12 36 19 NNW 1013,8 5
13.11.2017 04:00:00 1,8 1,7 21 11 - - NNW 1013,1 8
13.11.2017 03:00:00 1,7 1,6 18 10 32 18 NNW 1012,6 3,1
13.11.2017 02:00:00 1,6 1,6 18 10 32 18 NNW 1011,8 0,7
13.11.2017 01:00:00 1,6 1,6 22 12 - - NNW 1011,2 0,4
13.11.2017 00:00:00 1,5 1,5 18 10 32 18 NNW 1010,3 3,4
12.11.2017 23:00:00 1,1 1,1 18 10 29 16 NNW 1009,6 0,5
12.11.2017 22:00:00 1,1 1,1 15 8 - - NW 1008,5 4,9
12.11.2017 21:00:00 0,9 0,9 15 8 32 18 NNW 1007,6 2,7
12.11.2017 20:00:00 1,1 0,9 15 8 32 18 NW 1006,2 10
12.11.2017 19:00:00 0,7 0,6 15 8 - - WNW 1004,8 4,2
12.11.2017 18:00:00 1,0 0,5 24 13 47 25 NW 1003,7 10
12.11.2017 17:00:00 0,8 0,5 24 13 47 25 NW 1003,1 9
12.11.2017 16:00:00 0,3 0,0 24 13 - - NW 1002,7 10
12.11.2017 15:00:00 2,0 0,9 22 12 36 19 WNW 1001,7 10
12.11.2017 14:00:00 2,3 1,4 13 7 25 14 NW 1001,6 10
12.11.2017 13:00:00 0,6 0,4 9 5 - - WNW 1002,3 10
12.11.2017 12:00:00 0,8 0,6 5 3 11 6 W 1002,5 9
12.11.2017 11:00:00 0,6 0,4 2 1 4 2 - 1002,6 7
12.11.2017 10:00:00 0,1 0,1 4 2 - - - 1004,7 1,6
12.11.2017 09:00:00 1,3 0,9 8 4 18 10 WSW 1005,1 2,5
12.11.2017 08:00:00 2,5 2,1 8 4 14 8 SSW 1004,7 8
12.11.2017 07:00:00 2,5 2,5 5 3 - - SSW 1006,2 3,3
12.11.2017 06:00:00 2,9 2,8 5 3 14 8 SSW 1007,8 3,4
12.11.2017 05:00:00 2,7 2,7 8 4 14 8 WSW 1008,7 3,8

tt = Température de l'air
td = dewpoint
ff = Vitesse du vent
fx = gusts
dd = Direction du vent
ppp = reduced air pressure
vv = visibility

stations d'obs. à proximité